Theta_e
322 323 323 321 321 321 321 321 321 316 316 320 320 320 320 319 319 317 317 316 315 315 315 314 313 312 313 313 313 313 313 312 312 314 314 311 310 309
322 323 323 322 323 323 323 322 322 320 316 320 321 321 320 320 319 318 318 316 315 316 316 316 315 315 314 313 313 313 313 313 313 312 313 313 312 310
324 323 322 322 323 323 323 323 323 323 321 320 321 320 320 320 320 319 319 317 315 314 314 314 315 316 316 316 315 315 314 313 313 313 312 312 312 312
323 323 324 323 323 323 323 323 323 323 323 321 322 321 321 321 320 319 319 318 316 315 315 314 314 314 315 315 315 315 315 315 314 313 312 312 312 312
323 322 324 324 323 323 324 324 323 323 322 322 322 322 321 321 320 319 319 319 317 316 315 314 314 314 315 315 315 315 315 315 314 314 313 312 312 312
324 322 321 323 323 324 324 323 323 322 322 322 322 321 321 320 320 319 319 319 318 317 315 313 313 314 315 315 315 315 313 313 313 314 314 314 312 312
323 322 321 321 323 324 324 323 322 322 322 321 321 320 320 320 320 320 318 318 317 317 313 313 313 314 313 313 313 313 312 312 311 312 313 314 313 312
321 320 323 323 325 325 324 321 322 322 322 321 320 319 320 321 320 320 318 317 316 315 313 313 314 313 313 312 313 312 312 311 311 312 314 313 314 313
323 324 325 326 326 325 324 322 320 322 322 322 322 322 321 321 320 318 317 317 316 314 313 314 314 314 314 314 313 313 312 311 312 312 313 313 313 313
325 326 326 325 323 322 322 321 321 321 322 321 321 321 321 321 319 317 316 315 314 314 314 314 312 312 311 311 311 310 311 312 312 312 312 312 312 312
324 325 323 321 319 317 320 320 319 319 319 319 320 320 320 320 318 316 315 314 313 312 313 312 311 311 310 310 310 310 312 312 312 311 310 311 311 311
317 317 317 317 317 317 318 318 317 318 317 316 318 318 319 318 317 316 315 312 311 311 312 311 311 310 310 311 310 311 310 311 311 310 310 311 310 310
311 311 312 315 315 314 314 314 315 314 315 315 316 317 317 317 316 315 314 313 311 311 311 311 311 310 310 309 309 310 310 310 310 310 310 309 310 310
298 299 304 311 313 313 314 314 314 314 315 315 316 316 315 315 314 313 312 311 310 310 310 311 310 310 310 309 309 309 309 309 309 309 309 309 310 310
293 294 296 302 307 310 311 312 313 312 313 313 314 314 314 314 313 311 310 309 309 309 309 309 309 309 310 309 308 308 309 309 308 308 309 308 308 307
292 292 292 295 298 301 303 303 304 305 307 309 308 309 309 309 309 308 308 308 308 308 308 307 308 309 309 309 308 307 307 306 308 309 308 307 308 308
291 291 292 292 293 296 298 299 300 302 302 301 303 304 304 305 306 306 305 305 305 305 306 306 307 307 306 305 305 306 307 307 308 307 305 304 306 306
288 288 288 289 291 292 292 292 293 294 294 295 296 296 298 299 299 300 300 301 300 301 302 303 303 304 304 304 304 305 305 305 305 304 303 302 302 305
285 285 285 285 285 285 286 287 287 288 288 290 291 291 292 293 294 295 295 295 296 295 296 297 298 298 296 297 300 302 302 302 302 302 301 301 300 301
280 280 281 281 281 282 282 282 283 284 285 286 286 287 287 288 289 289 290 290 290 291 292 294 294 294 294 295 296 296 297 298 298 298 298 299 299 299
278 278 277 278 278 279 279 280 280 280 281 281 282 283 283 284 285 286 286 287 287 288 288 289 290 290 290 291 291 293 294 295 296 296 297 296 297 297
275 276 276 275 276 276 276 277 277 277 278 278 278 279 280 281 282 283 283 283 284 284 284 285 286 287 288 289 290 291 291 292 293 294 294 295 296 296
273 273 273 273 273 273 274 274 274 274 275 275 276 277 277 278 279 280 281 281 281 282 282 282 283 284 285 286 288 289 290 290 290 291 292 293 294 295
Wind_Speed
35 27 23 18 17 16 17 20 12 3 4 9 7 11 11 9 7 4 1 1 2 3 4 5 5 6 7 8 8 7 7 8 10 10 10 9 8 6
35 30 24 21 19 17 15 16 11 8 2 12 11 7 11 11 9 6 3 1 2 2 3 4 6 7 7 8 9 10 10 10 10 11 12 12 11 10
33 29 27 24 23 19 17 16 14 12 8 7 10 11 10 12 12 11 7 4 3 3 4 5 6 7 8 9 10 11 12 13 13 14 14 14 15 14
36 31 28 25 22 22 20 18 17 16 13 13 12 11 12 10 12 13 10 8 6 5 5 7 8 9 9 8 9 10 12 13 14 16 17 17 17 17
41 35 32 28 25 24 22 21 19 18 17 14 12 11 12 12 12 15 14 13 11 10 8 8 10 11 11 11 12 11 10 12 13 15 17 19 20 20
42 39 37 34 31 27 23 21 20 19 19 17 15 13 11 12 12 14 15 15 14 13 10 9 12 13 12 12 11 9 13 15 17 18 17 19 21 22
43 40 38 35 32 28 26 22 19 18 19 18 17 14 13 12 13 13 14 14 14 15 12 11 13 11 11 10 11 14 17 18 20 21 19 19 19 22
39 40 34 32 29 28 25 21 20 21 21 21 19 16 17 17 15 14 12 11 4 12 9 11 11 13 14 14 16 18 20 19 21 20 17 17 19 19
39 40 36 32 29 27 24 23 21 21 20 20 22 23 21 19 17 13 13 12 14 11 7 9 13 17 17 20 21 22 22 21 20 18 17 18 19 19
42 43 37 33 28 24 22 21 22 22 21 20 19 18 18 17 15 14 12 11 11 11 7 7 14 19 22 21 16 17 16 13 10 12 13 16 18 19
42 39 36 29 23 20 22 23 22 22 21 20 18 17 16 16 16 15 14 12 7 9 11 11 16 17 17 21 13 11 7 11 15 14 15 17 16 18
30 29 25 26 23 21 21 21 20 20 20 20 21 20 19 18 18 18 16 15 11 5 10 10 12 11 6 10 10 11 16 14 16 13 17 16 15 15
27 23 22 23 22 21 20 21 22 20 21 20 19 21 22 22 21 19 17 16 15 16 13 12 8 12 12 12 16 22 22 19 21 21 19 18 19 18
15 13 15 19 21 19 17 18 17 18 16 19 20 21 22 20 19 18 16 14 15 16 14 14 11 14 18 17 16 22 29 26 23 25 24 23 17 18
13 10 7 12 15 16 17 16 16 17 17 21 20 20 20 17 14 12 12 12 12 12 13 14 19 21 22 26 20 23 24 30 31 25 24 26 29 26
12 10 9 9 8 8 10 10 9 10 9 11 10 10 10 10 11 11 12 12 13 16 16 17 18 22 25 27 28 27 26 20 29 33 33 33 33 31
9 9 10 9 9 8 7 9 9 9 8 5 5 5 7 8 9 12 14 13 15 17 19 19 19 20 23 24 26 27 29 30 32 31 33 33 34 34
7 7 11 9 9 8 8 9 9 8 6 4 3 2 1 3 5 7 8 9 12 16 18 19 20 23 26 27 26 27 29 29 27 25 26 29 32 34
10 12 12 10 9 8 7 6 6 5 3 2 3 2 3 4 6 8 10 10 13 14 14 13 15 17 11 7 15 23 24 24 24 25 25 29 31 36
9 9 9 7 7 8 7 6 6 6 5 5 5 5 6 7 9 10 10 11 13 15 16 14 15 16 16 10 15 21 24 27 28 27 27 33 35 37
8 8 6 5 5 6 5 5 6 7 7 8 7 8 8 8 8 8 9 9 10 12 12 13 17 19 22 26 21 19 23 27 28 29 31 30 27 26
5 6 5 5 5 5 4 5 7 7 8 8 7 7 7 6 6 7 8 10 11 11 14 18 22 23 23 18 22 24 23 23 23 28 29 29 28 10
4 4 3 3 4 4 4 4 5 6 6 7 8 8 7 6 5 7 8 9 11 15 16 18 19 18 20 21 24 25 25 26 26 26 29 31 35 35
Wind_Direction
209 209 206 201 194 188 183 175 156 154 223 203 190 207 207 211 208 205 214 294 300 290 289 291 295 285 281 281 281 283 286 283 276 276 279 286 296 305
213 213 213 207 192 188 186 191 193 162 176 204 206 196 207 215 220 224 236 273 344 319 302 297 295 291 290 289 287 284 282 281 279 275 271 273 276 278
214 215 212 207 201 200 198 200 202 196 183 193 203 208 210 216 224 227 233 257 266 306 321 305 298 296 294 293 292 290 288 283 278 275 272 269 268 269
210 211 211 208 210 209 209 210 212 212 207 205 211 213 220 234 234 234 237 250 251 273 299 306 300 295 292 295 296 296 294 292 285 277 271 269 267 264
212 212 211 210 211 210 216 221 220 219 221 222 220 220 221 226 231 237 242 249 251 260 274 291 302 295 286 287 293 295 304 304 299 293 279 270 265 265
216 217 219 219 217 215 216 215 216 215 217 226 231 229 219 221 226 236 243 249 258 260 274 292 302 297 289 289 284 287 309 307 302 294 290 281 267 262
219 221 222 224 218 220 215 215 216 214 214 218 225 223 222 217 220 235 242 253 259 261 271 276 291 284 298 296 300 298 302 301 305 300 287 283 278 264
215 220 218 218 221 216 220 224 228 220 216 213 222 226 235 236 238 241 242 251 272 262 252 285 273 292 299 305 301 302 302 301 301 297 286 287 281 275
215 218 211 211 213 214 215 217 224 233 235 236 225 227 232 235 240 230 228 239 246 262 252 269 282 297 301 296 292 292 293 297 297 292 290 288 285 278
207 209 198 197 198 206 211 216 225 227 228 233 236 241 243 245 237 236 232 235 243 254 269 271 289 295 306 305 303 300 297 300 324 319 306 301 291 280
202 196 194 193 199 209 213 216 219 224 229 236 239 241 239 233 228 219 214 219 242 266 263 257 280 294 298 305 305 305 299 310 313 315 314 312 301 293
167 178 179 182 185 194 206 206 211 219 222 226 234 232 228 222 222 232 235 221 219 246 265 235 267 302 305 268 280 301 307 303 310 308 318 315 311 309
143 150 166 183 189 197 207 214 220 228 233 240 240 236 228 225 222 220 220 230 217 231 256 253 242 279 260 268 293 302 306 309 310 309 309 311 305 302
99 112 139 176 194 200 200 208 218 223 229 224 221 222 212 212 212 219 224 228 243 257 264 260 266 274 262 259 273 293 303 306 309 306 308 308 305 302
72 77 84 131 154 186 197 204 207 203 210 210 214 215 216 216 221 223 235 245 247 252 259 260 267 272 271 271 272 283 292 300 305 299 305 301 298 295
47 40 54 87 119 137 149 156 173 181 197 214 202 217 227 235 240 247 248 249 261 261 260 267 274 270 269 271 276 281 285 281 289 294 300 300 301 294
24 32 41 37 68 94 118 128 129 148 156 152 166 206 220 229 230 247 261 268 274 273 274 271 274 275 277 274 273 272 279 281 284 290 294 298 297 297
42 52 53 52 70 81 96 100 104 103 99 111 115 108 286 283 286 279 283 281 283 283 283 281 286 286 282 278 273 274 278 280 285 292 296 296 295 298
70 73 77 78 68 53 49 63 74 74 54 43 30 11 341 314 302 296 302 303 298 292 286 291 297 295 283 276 277 279 277 282 285 287 288 290 286 293
54 58 62 51 49 62 38 22 10 10 359 352 346 333 325 312 312 310 308 309 307 309 307 301 300 305 289 285 293 285 279 282 284 285 287 292 292 296
42 38 32 36 34 33 33 348 351 353 342 338 331 326 315 315 306 295 298 303 309 308 307 307 300 296 295 298 290 279 285 290 289 285 287 284 286 286
51 50 19 12 22 28 7 343 335 338 332 328 320 318 316 312 321 313 307 312 314 311 306 307 305 303 301 290 285 290 292 294 287 286 284 277 270 277
37 27 14 7 352 356 1 342 334 341 333 326 327 317 317 318 312 308 316 322 326 324 322 317 314 308 296 288 289 291 292 291 293 289 285 289 288 286